Showing default

SAUDISAT 5A, 43831

Orbit data source: Space-Track

SAUDISAT 5A, 43831 is a payload satellite owned by KACST (SA) in SSO that was launched on Fri, 07 Dec 2018 UTC via a CHANG ZHENG 2D launch vehicle from the Jiuquan Satellite Launch Center, China (JSC). Payloads include a variety of satellites, spacecraft, and rockets equipped with specific instruments for various scientific and technological missions. These include communications satellites like Starlink; space stations such as the ISS; scientific satellites like the Hubble; Earth observation satellites from companies like Planet Labs, Umbra, and HawkEye 360; GPS; miniature CubeSats for education and research; and military/defense satellites.

Loading next visibility...
SAUDISAT 5A details
Identifier
43831, 2018-102A
Orbit
SSO
Last TLE update7 hours ago
Origin
Flag of SAKACST (SA / SAUD)
ManufacturerKACST
MissionOperational Civil Technology
Bus & MotorSAUDISAT, Unknown motor
Mass425 kg wet, 425 kg dry
Launch date (UTC)
2018-12-07 (6 years ago)
Launch vehicle
CHANG ZHENG 2D
Launch site
Jiuquan Satellite Launch Center, China (JSC)
Object type
Payload
Rocket body
Debris
Shape & HBRBox, 2 m
Radar Cross Section2.500 m², Large (>1 m²)

Expand to show TLE details & history

TLE from 7 hours ago
0 SAUDISAT 5A
1 43831U 18102A   24361.15362950  .00009973  00000-0  46498-3 0  9990
2 43831  97.3848  62.4223 0010406 224.4285 135.6117 15.20022037333710
Epoch: 2024-12-26T03:41Z
Definitive object data (Epoch: 2024-12-26T03:41:13.588Z)
Latitude0.00002°
Longitude-88.02143°
Altitude513.989 km
Speed7.604 km/s
True Right ascension04h 09m 41s
True Declination0° 00' 00"
Sunlit
Object was in full shadow at TLE epoch
Visualization TLE readout
Latitude52.45759°
Longitude-97.40961°
Altitude521.404 km
Speed7.604 km/s
Apparent Right ascension00h 16m 50s
Apparent Declination11° 56' 38"
Sunlit
Object is in full shadow
Visualization observer readout
Local Sidereal Time09:35:30
Azimuth315.182° NNW
Elevation-26.053°
Doppler factor1
Orbital elements
Apogee altitude509.899 km
Perigee altitude495.579 km
Semi-major axis6,880.876 km
Eccentricity0.0010406
Inclination97.3848°
RAAN62.4223°
Arg. of periapsis224.4285°
True anomaly135.69504°
Mean anomaly135.6117°
Eccentric anomaly135.65338°
Mean motion3.80257 °/min
BSTAR0.00046498
Orbital period94.67 mins
Loading maneuver chart data...
Loading historical data...
Loading historical data...
Loading historical data...
Loading historical data...
Loading historical data...
Loading historical data...
Loading historical data...

SAUDISAT 5A Visibility forecast

Observer location: undefined°, undefined

Span
Click to sort rows by Start time (UTC) header in descending order
Start Az.
Max El. time (UTC)
Max El. Az.
Max El.
End time (UTC)
End Az.
6 mins2024-12-26 16:53:21.307Z24.308° NE2024-12-26 16:56:21.307Z86.135° E37.304°2024-12-26 16:59:21.307Z172.61° S
4 mins2024-12-27 03:32:21.307Z110.592° ESE2024-12-27 03:34:21.307Z72.461° E19.374°2024-12-27 03:36:21.307Z31.852° NE
4 mins2024-12-27 05:06:21.307Z223.417° SW2024-12-27 05:08:21.307Z268.191° W22.06°2024-12-27 05:10:21.307Z309.538° NW
|